Погода в Ишаках

Россия / Чувашская Республика     55°56′03″N   47°03′57″E
темп.,
°C
ветер,
м/с
пор.,
м/с
влажн.,
%
обл.,
%
осадки,
мм/ч
давл.,
гПа
погр.,
м
28 октября, чт
чт2800:00+3зюз81396100 0.7 1010841
03:00+4з61294100 1.4 1010803
06:00+5з71284100 0.1 1010772
09:00+5зюз61084100 0.1 1011692
12:00+7зюз6107297 0.0 1011787
15:00+7зюз5869100 0.0 1011907
18:00+6зюз4689100 0.8 1012880
21:00+5ссз3592100 3.0 1013875
29 октября, пт
пт2900:00+4ссв6890100 0.3 1016614
03:00+1ссв68705 0.3 1021566
06:00−3ссв48785 0.0 1024347
09:00−2всв3465100 0.0 1027332
12:00+1юв214716 0.0 1027505
15:00+2ююз344590 0.0 1027525
18:00−1ююз3860100 0.0 1027188
21:00+1ююз51263100 0.0 1025342
30 октября, сб
сб3000:00+4юз71589100 0.4 1023601
03:00+5зюз71483100 0.4 1022517
06:00+4зюз7169121 0.0 1021404
09:00+6зюз71692100 0.0 1021460
12:00+9з7158093 0.0 1021561
15:00+10з714786 0.0 1021565
18:00+8з614905 0.0 1023382
21:00+7з512945 0.0 1024304
31 октября, вс
вс3100:00+6з4109736 0.0 1025215
03:00+5з399853 0.0 1026175
06:00+5зюз389840 0.0 1026155
09:00+7зюз5118914 0.0 1025310
12:00+11з6136274 0.0 1025549
15:00+11зюз6146110 0.0 1024562
18:00+8зюз7157180 0.0 1024403
21:00+7зюз6147652 0.0 1025363
1 ноября, пн
пн100:00+5зюз5138265 0.0 1024303
03:00+4зюз5138535 0.0 1024270
06:00+4зюз5138550 0.0 1024268
09:00+6зюз6157592 0.0 1024392
12:00+9зюз61458100 0.0 1023530
15:00+9зюз61359100 0.0 1022483
18:00+7зюз6146999 0.0 1022324
21:00+5з4127757 0.0 1023236